Theta_e
312 311 311 311 310 311 311 310 310 310 310 309 309 309 309 308 306 304 305 302 311 316 318 321 325 327 327 328 327 328 334 334 330 332 329 329 333 333 329 337 334 334 333 331 326
311 310 311 311 311 310 311 310 310 310 310 309 309 309 308 307 305 307 302 306 305 312 313 319 322 325 329 329 329 331 335 332 327 327 328 330 330 333 332 337 338 334 331 328 324
311 311 310 309 311 311 310 311 309 309 310 309 309 308 308 306 308 304 312 310 308 306 310 317 318 322 328 328 330 331 333 330 329 327 328 330 330 327 332 335 336 335 332 326 324
310 309 309 307 310 310 310 310 307 309 308 309 309 309 308 305 299 307 312 307 302 306 312 315 319 319 327 329 329 331 330 328 329 328 328 329 326 331 328 332 332 332 329 324 324
308 308 308 307 307 309 309 309 309 309 309 309 308 308 306 306 306 299 300 304 305 308 311 316 318 319 323 325 327 330 328 329 328 330 328 328 328 328 327 323 332 331 327 325 324
309 308 307 307 306 307 308 309 308 309 308 308 308 308 306 304 301 300 303 303 304 309 311 313 316 318 322 324 326 327 327 326 328 329 330 329 329 326 325 334 333 331 328 325 325
309 308 307 307 305 306 306 304 305 306 306 307 308 307 305 304 300 301 304 305 305 306 306 306 312 318 321 324 324 325 326 327 329 330 331 328 330 329 327 336 334 332 330 326 325
308 308 307 306 306 306 305 303 304 305 305 305 307 306 303 300 302 304 305 305 307 306 306 306 309 316 319 321 323 327 324 327 327 332 331 330 334 330 331 337 337 333 331 328 325
308 307 306 305 305 304 303 304 304 305 305 306 306 304 304 303 305 304 303 305 303 305 306 308 313 317 320 323 325 324 325 326 325 329 331 332 332 328 332 336 337 334 332 330 328
306 305 305 305 303 303 304 304 304 305 303 303 304 303 303 305 303 302 301 301 303 308 310 311 313 321 323 323 325 324 324 323 324 324 332 331 333 326 328 336 336 335 333 332 330
304 304 303 302 304 304 303 303 300 297 302 301 302 304 304 303 302 303 302 304 308 309 309 310 316 319 320 320 321 320 322 325 323 322 332 332 332 330 330 336 337 335 335 334 333
303 302 303 304 303 303 303 303 304 303 302 301 302 302 302 302 304 303 304 306 308 310 310 312 318 316 319 320 321 319 322 323 320 320 330 333 331 330 332 334 336 336 336 334 334
303 304 304 303 304 303 302 303 303 302 299 299 300 300 301 305 306 305 304 306 308 309 310 314 316 317 319 320 321 318 318 322 322 323 329 331 332 330 330 331 334 334 335 333 333
304 304 303 303 304 302 303 301 301 301 292 299 303 304 305 306 306 305 305 307 309 312 311 314 314 319 320 321 318 320 318 318 320 324 334 330 335 331 331 330 334 335 333 333 332
304 303 303 304 303 303 301 301 301 298 290 297 302 303 303 306 305 304 307 308 307 310 313 315 317 318 320 319 317 320 320 320 319 321 327 334 331 333 330 333 332 336 334 332 332
304 303 303 303 304 301 300 301 301 292 291 299 300 300 301 303 303 303 304 307 308 306 311 314 315 317 319 319 319 320 320 320 317 318 327 332 332 335 332 333 328 334 334 333 332
301 301 300 301 300 299 301 298 294 291 294 294 300 301 302 303 303 303 304 305 307 309 310 312 316 315 317 322 319 319 320 325 326 327 330 325 328 331 329 328 327 332 335 334 330
302 303 301 299 300 299 299 293 290 287 288 299 301 300 303 302 301 302 302 305 305 306 312 312 319 317 318 322 322 321 319 322 324 331 329 326 328 330 321 324 322 329 332 333 325
301 302 303 299 300 302 292 288 291 289 298 300 298 293 293 299 300 300 302 304 305 306 308 314 317 317 318 319 319 319 326 320 323 320 326 325 322 325 324 329 328 331 331 325 320
301 302 302 299 300 298 290 295 288 296 299 294 294 292 291 295 296 298 301 305 305 305 305 313 314 316 317 315 320 322 320 325 323 327 328 330 327 331 326 329 326 325 322 318 313
301 294 300 299 300 291 289 289 292 297 297 294 291 294 292 298 298 298 303 304 303 302 306 309 313 313 316 314 317 322 324 323 323 324 330 331 327 311 314 326 324 321 315 313 312
298 291 300 301 292 295 287 287 297 297 298 298 297 296 290 292 291 298 301 302 302 301 305 307 311 312 314 312 314 315 321 322 323 325 320 324 328 309 310 320 321 316 312 310 309
294 296 299 298 289 290 296 295 296 297 298 299 298 296 295 293 292 295 302 301 300 301 303 304 310 308 313 316 316 316 317 321 319 316 318 324 328 315 316 316 313 310 309 307 306
291 290 288 291 293 294 291 289 294 297 298 299 299 299 297 288 295 294 300 301 300 301 305 307 310 313 317 318 315 319 318 320 320 319 319 320 314 317 316 315 311 308 305 304 303
290 291 289 285 287 294 296 295 297 293 299 298 298 294 297 295 290 298 299 299 300 301 301 305 308 310 310 312 312 315 319 320 323 322 319 318 312 317 315 313 310 307 305 304 303
291 289 291 293 294 295 295 296 298 298 299 296 296 298 300 295 294 301 299 300 301 299 300 302 305 310 307 311 312 312 313 318 320 321 319 313 312 308 312 310 309 307 306 305 304
295 294 291 289 293 294 292 296 298 296 296 297 299 299 295 296 297 298 298 298 297 298 298 301 305 307 306 308 309 305 309 317 319 318 320 317 311 312 312 312 310 308 307 307 306
Wind_Speed
12 11 11 11 11 10 9 10 10 10 10 11 11 12 14 16 18 16 11 21 13 10 12 13 9 5 3 3 4 2 4 10 13 7 5 4 5 1 2 3 4 3 7 13 33
13 13 13 12 11 11 11 11 11 10 10 11 11 13 14 16 18 14 20 21 24 18 14 12 7 10 4 5 6 6 6 16 3 7 8 6 4 6 6 2 4 2 4 34 32
15 14 14 14 12 12 11 12 11 11 10 11 11 12 14 15 6 6 12 15 11 23 21 19 15 6 11 7 8 7 14 7 11 11 8 8 3 3 3 4 10 9 22 23 25
15 15 14 14 13 12 10 11 11 11 11 10 10 11 13 6 6 3 6 12 19 8 17 21 8 6 10 15 8 6 10 18 11 6 8 7 4 4 5 9 9 15 29 22 19
14 15 13 13 11 10 10 10 11 10 10 9 9 10 7 1 10 25 22 15 15 10 8 13 16 11 14 8 8 12 12 13 16 9 16 12 10 6 6 7 10 16 20 23 18
13 12 10 12 9 9 9 10 10 10 10 9 8 8 2 7 10 11 14 18 20 10 6 8 11 13 10 8 16 4 17 14 14 17 12 21 13 5 6 9 12 20 20 19 18
8 7 8 8 8 7 8 9 9 9 9 9 7 7 4 16 20 21 21 18 17 17 7 13 15 17 10 6 2 3 4 6 18 17 10 12 16 12 6 13 16 18 15 16 13
2 3 5 5 5 6 7 8 8 9 9 9 6 6 6 18 17 21 17 18 17 18 22 21 17 13 18 3 2 3 4 5 6 15 14 6 17 20 9 12 15 15 14 13 13
2 0 2 2 3 5 6 7 8 9 11 9 6 3 9 12 9 13 17 13 20 21 21 20 10 12 8 10 5 4 3 7 7 16 11 16 5 18 15 13 15 15 16 13 13
4 4 3 3 3 4 5 8 9 11 7 4 6 4 6 5 18 24 31 25 12 7 6 7 7 12 7 11 7 6 4 6 9 10 25 25 16 9 14 15 14 15 16 16 16
6 6 6 5 4 5 9 4 6 4 4 5 6 6 11 16 26 8 23 9 5 4 8 13 13 12 25 13 7 3 4 8 10 10 23 26 23 10 20 16 14 14 15 16 16
7 8 7 6 5 6 6 4 2 3 8 9 14 10 21 12 8 11 8 3 4 12 10 12 20 13 9 11 10 6 7 12 11 9 23 23 30 18 7 15 18 18 18 15 14
8 8 7 5 3 5 7 5 4 6 2 7 6 5 8 2 5 11 3 5 8 7 14 14 6 9 10 13 14 6 4 4 7 4 21 15 32 21 7 4 10 13 17 18 18
8 8 7 6 3 5 1 8 5 3 4 5 4 4 4 3 6 7 8 5 5 5 6 9 9 12 16 15 8 8 11 7 7 4 6 24 7 27 18 11 13 13 12 15 15
7 5 7 9 6 3 8 11 8 2 4 6 6 5 6 4 7 3 6 2 5 9 4 5 7 9 22 14 10 5 10 3 4 10 4 12 5 12 23 13 11 16 16 15 16
6 6 9 6 4 6 13 11 1 5 5 6 4 8 8 4 5 6 5 3 4 4 3 4 1 2 3 12 8 13 4 1 1 1 3 8 3 5 24 24 15 14 17 15 14
8 8 10 7 6 14 13 2 4 4 4 8 5 8 7 7 7 6 5 6 2 5 4 3 5 5 5 10 10 7 6 2 3 3 1 4 4 2 23 21 17 14 16 17 16
7 7 6 9 12 13 5 5 4 3 5 4 5 9 5 6 4 7 8 6 5 3 4 2 3 1 2 1 6 10 7 2 3 1 2 7 5 2 4 8 12 11 14 17 13
6 4 3 11 13 10 5 4 6 5 3 5 7 6 6 5 1 7 5 7 4 7 3 4 2 1 5 4 1 4 3 5 3 2 0 2 2 2 3 7 9 12 16 16 14
7 3 2 13 10 5 5 4 3 3 3 4 1 2 3 6 8 7 5 4 13 10 8 5 3 4 2 3 2 3 5 2 2 1 1 1 2 2 4 7 9 12 14 14 13
3 3 6 9 4 5 2 5 5 4 3 3 3 3 4 4 2 5 6 5 10 14 10 7 3 6 2 5 3 4 2 3 2 2 0 1 3 4 2 7 11 11 11 12 14
2 2 7 6 4 2 0 3 3 3 2 3 3 2 3 3 3 3 4 5 9 10 7 3 2 2 2 4 1 3 3 2 2 2 2 1 3 4 5 8 11 12 13 11 11
2 2 3 3 3 1 3 4 3 2 2 3 2 3 2 3 3 3 6 5 10 8 7 6 4 2 2 3 3 3 4 3 3 4 1 1 1 5 10 11 10 13 11 10 11
3 2 4 4 1 4 1 4 6 3 3 2 3 2 1 3 2 5 7 5 14 7 18 2 3 2 4 4 3 3 3 3 3 3 1 1 3 3 4 10 9 9 9 9 9
3 1 2 3 3 2 0 2 6 4 2 2 2 1 0 3 5 3 4 7 9 12 9 5 3 3 2 3 3 5 5 3 1 1 3 4 3 4 6 8 9 10 10 10 9
3 3 2 2 2 4 2 1 2 5 2 3 2 2 3 3 5 3 6 3 3 9 8 10 4 5 3 3 3 3 7 0 2 2 1 2 2 1 5 8 7 10 10 9 8
2 2 4 2 1 2 2 2 2 4 4 4 1 3 3 5 3 6 6 5 4 5 6 6 6 5 4 5 7 4 5 5 2 0 2 2 2 3 4 6 9 9 9 10 10
Wind_Direction
299 299 298 295 295 298 293 297 300 306 319 326 325 329 332 328 319 309 254 252 246 249 297 298 296 245 206 220 186 80 229 228 218 242 249 249 219 227 16 125 313 294 154 158 156
307 300 291 287 289 290 290 293 292 298 305 316 320 323 328 327 318 276 297 279 250 242 278 266 272 256 216 198 192 185 225 234 241 237 302 276 275 172 158 160 308 271 93 146 149
298 297 298 292 284 285 289 290 288 295 297 305 315 319 323 327 309 245 52 51 270 257 265 263 262 273 235 194 198 183 233 235 251 251 292 287 251 262 218 208 219 182 146 155 154
294 290 291 293 288 282 284 284 287 283 288 295 307 310 317 312 284 208 267 312 326 298 272 260 242 246 242 208 204 229 215 220 228 236 256 264 275 248 206 228 181 179 158 160 161
293 292 296 292 289 278 280 282 283 284 283 287 300 309 333 296 249 278 294 320 321 288 272 239 237 232 257 229 220 222 234 215 225 214 249 262 276 243 257 270 152 152 160 166 160
287 290 300 284 287 276 278 277 278 278 281 287 298 313 288 267 266 302 307 298 301 268 249 257 239 229 280 268 219 221 227 233 225 222 242 245 260 221 242 112 154 160 169 170 163
285 293 283 280 286 274 271 282 279 278 279 291 298 316 251 253 285 304 301 295 289 272 270 270 271 251 196 238 194 202 233 253 234 218 217 236 262 228 220 157 162 174 167 171 157
314 297 266 289 286 274 286 288 280 278 285 295 308 302 253 282 308 297 301 296 290 277 259 268 262 269 247 302 106 131 129 235 238 206 207 166 242 223 180 165 172 176 174 172 167
44 225 305 307 299 305 299 290 286 288 291 297 293 200 266 305 286 306 301 273 287 286 261 262 240 251 171 217 175 196 193 200 252 227 218 212 226 216 168 185 179 177 184 174 168
70 66 33 17 350 337 329 307 296 296 303 287 248 308 265 267 308 302 293 282 249 263 275 243 238 213 200 190 186 179 189 220 231 233 211 208 245 221 181 179 187 178 182 178 178
65 64 54 43 32 18 349 334 15 352 8 240 257 248 286 286 306 278 297 271 205 208 212 262 232 233 200 201 171 160 212 243 247 282 204 200 223 246 176 193 179 183 179 180 183
66 67 63 61 51 18 17 76 109 277 302 262 259 259 265 271 296 291 284 284 240 230 200 253 241 202 186 167 185 169 225 249 288 246 205 207 219 232 182 180 178 183 178 175 163
72 76 79 62 6 19 64 50 332 340 273 293 247 260 265 271 265 281 242 256 249 234 234 240 265 199 153 167 171 171 171 220 262 319 221 205 206 230 217 198 195 193 188 175 165
80 79 54 337 303 337 32 345 335 328 50 281 318 281 293 254 273 238 244 255 317 292 225 258 229 203 178 185 174 183 178 215 271 254 232 190 212 219 218 212 177 184 183 189 179
75 63 16 10 324 358 321 325 325 112 12 289 297 290 296 225 288 323 258 261 263 275 257 225 177 235 182 188 177 188 167 225 332 265 247 179 150 196 211 222 205 185 185 185 188
49 356 338 316 322 343 326 323 43 41 266 323 317 319 332 304 295 298 299 235 174 297 234 315 236 219 242 160 172 133 103 326 269 161 229 197 148 187 191 203 211 189 184 175 171
34 21 25 5 330 331 331 30 29 119 329 308 318 327 317 313 309 343 321 318 308 310 18 333 268 164 223 128 127 100 82 214 237 211 187 243 115 274 201 193 207 191 177 165 154
5 6 4 9 345 339 352 46 81 239 249 301 325 318 336 332 309 325 339 350 359 286 301 254 147 19 355 360 152 126 160 140 292 358 100 132 187 123 13 162 213 185 164 150 146
349 359 338 350 348 350 65 42 208 210 257 321 325 28 315 328 302 357 359 332 329 354 355 339 20 131 15 346 134 180 215 160 195 219 98 149 266 315 43 82 133 141 146 145 141
337 336 20 350 348 28 70 263 236 244 318 53 83 123 305 309 359 3 347 8 342 328 330 317 357 16 5 330 89 204 142 129 17 19 18 201 93 55 140 131 115 126 133 126 122
328 40 355 351 4 47 137 236 274 273 248 129 207 306 265 303 305 308 305 314 10 331 338 2 5 327 16 19 358 39 129 46 164 115 234 134 70 223 264 161 137 124 123 129 131
56 12 352 7 57 87 64 215 262 292 313 296 166 179 214 304 308 311 321 282 18 324 351 322 314 65 296 298 34 35 318 283 119 317 338 336 74 330 224 139 136 126 124 123 119
64 286 338 345 98 7 321 294 278 298 286 305 279 161 198 283 350 262 323 311 4 354 350 329 348 17 249 179 150 58 311 303 94 81 254 61 89 19 86 109 127 129 129 130 125
78 10 332 38 62 130 59 282 310 258 267 299 295 297 191 348 257 296 317 308 327 344 327 267 321 3 16 13 353 344 325 354 62 77 322 319 144 82 83 119 123 121 125 126 127
47 259 128 313 328 14 136 232 301 305 242 295 293 38 238 296 340 305 329 316 316 0 347 17 332 8 299 318 23 315 337 314 238 6 74 318 79 169 164 154 149 135 130 132 138
133 145 158 279 311 310 305 273 264 301 244 264 234 265 304 217 199 308 317 353 336 332 352 348 324 350 293 243 185 286 291 237 293 354 21 84 73 356 110 109 131 147 148 152 155
141 128 110 294 217 54 246 269 330 7 290 258 246 310 282 255 309 288 280 273 298 325 321 342 350 351 293 342 349 344 242 184 140 159 65 37 30 131 111 140 159 158 162 163 164